Jennings, LA

1:49 PM CDT on September 18, 2019 (GMT -0500)
Jennings

Weather History for K3R7 - August, 2019

Change the Weather History Date:

Friday, August 23, 2019

  Actual Average (KCWF) Record (KCWF)
Temperature  
Mean Temperature 80 °F -  
Max Temperature 86 °F 90 °F 100 °F (2005)
Min Temperature 75 °F 75 °F 71 °F (2012)
Cooling Degree Days 15    
Growing Degree Days 30 (Base 50)    
Moisture  
Dew Point 75 °F    
Average Humidity 87    
Maximum Humidity 96    
Minimum Humidity 70    
Precipitation  
Precipitation 0.01 in - - ()
Sea Level Pressure  
Sea Level Pressure 29.95 in    
Wind  
Wind Speed 3 mph ()    
Max Wind Speed 13 mph    
Max Gust Speed 18 mph    
Visibility 10.0 miles    
Events Rain , Thunderstorm    
Averages and records for this station are not official NWS values.
T = Trace of Precipitation, MM = Missing Value Source: Averaged Metar Reports

Daily Weather History Graph

Daily Weather History Graph

Search for Another Location

Airport or City:

Astronomy

Aug. 23, 2019 Rise Set
Actual Time 6:42 AM CDT 7:43 PM CDT
Civil Twilight 6:17 AM CDT 8:08 PM CDT
Nautical Twilight 5:48 AM CDT 8:37 PM CDT
Astronomical Twilight 5:17 AM CDT 9:08 PM CDT
Moon 12:04 AM CDT (8/23) 1:47 PM CDT (8/23)
Length of Visible Light 13h 51m
Length of Day
13h 01m
Waning Gibbous, 49% of the Moon is Illuminated
Aug 23
Waning Gibbous
Aug 30
New
Sep 5
First Quarter
Sep 13
Full
Sep 21
Last Quarter

Hourly Weather History & Observations

Time (CDT) Temp. Heat Index Dew Point Humidity Pressure Visibility Wind Dir Wind Speed Gust Speed Precip Events Conditions
12:35 AM 77.5 °F - 74.5 °F 90% 29.95 in 10.0 mi Calm Calm - N/A   Clear
12:55 AM 77.4 °F - 74.5 °F 91% 29.95 in 10.0 mi Calm Calm - N/A   Clear
1:15 AM 77.4 °F - 74.7 °F 91% 29.95 in 10.0 mi Calm Calm - N/A   Clear
1:35 AM 77.2 °F - 74.7 °F 92% 29.95 in 10.0 mi Calm Calm - N/A   Clear
1:55 AM 77.0 °F - 74.7 °F 92% 29.95 in 10.0 mi Calm Calm - N/A   Clear
2:15 AM 77.0 °F - 75.0 °F 94% 29.94 in 10.0 mi Calm Calm - N/A   Clear
2:35 AM 77.0 °F - 75.2 °F 94% 29.94 in 10.0 mi Calm Calm - N/A Thunderstorm Thunderstorm
2:55 AM 77.0 °F - 75.2 °F 94% 29.94 in 10.0 mi Calm Calm - N/A Thunderstorm Clear
3:35 AM 76.6 °F - 74.8 °F 94% 29.93 in 10.0 mi Calm Calm - N/A Thunderstorm Clear
3:55 AM 77.2 °F - 75.6 °F 95% 29.94 in 10.0 mi SE 3.5 mph - N/A Thunderstorm Scattered Clouds
4:15 AM 77.4 °F - 75.6 °F 94% 29.92 in 10.0 mi ESE 3.5 mph - N/A Thunderstorm Scattered Clouds
4:35 AM 77.4 °F - 75.6 °F 94% 29.94 in 10.0 mi Calm Calm - N/A Rain , Thunderstorm Light Thunderstorms and Rain
4:55 AM 77.0 °F - 75.0 °F 94% 29.95 in 10.0 mi ESE 3.5 mph - N/A   Mostly Cloudy
5:15 AM 77.0 °F - 74.5 °F 92% 29.94 in 10.0 mi Calm Calm - N/A Rain Light Rain
5:35 AM 77.0 °F - 75.2 °F 94% 29.94 in 10.0 mi East 3.5 mph - N/A   Scattered Clouds
5:55 AM 77.0 °F - 75.6 °F 95% 29.94 in 10.0 mi East 4.6 mph - N/A Thunderstorm Clear
6:15 AM 77.0 °F - 75.6 °F 95% 29.95 in 10.0 mi East 4.6 mph - N/A Thunderstorm Clear
6:35 AM 76.6 °F - 75.4 °F 96% 29.95 in 10.0 mi ESE 4.6 mph - N/A   Scattered Clouds
6:55 AM 76.6 °F - 75.2 °F 95% 29.96 in 10.0 mi East 9.2 mph - N/A   Scattered Clouds
7:15 AM 76.1 °F - 74.3 °F 94% 29.97 in 10.0 mi ESE 11.5 mph - N/A Thunderstorm Scattered Clouds
8:15 AM 76.8 °F - 73.9 °F 91% 29.97 in 10.0 mi SE 5.8 mph - N/A   Clear
8:35 AM 76.6 °F - 74.1 °F 92% 29.97 in 10.0 mi SE 3.5 mph - N/A   Clear
8:55 AM 77.0 °F - 74.3 °F 91% 29.98 in 10.0 mi SSE 5.8 mph - N/A Thunderstorm Clear
9:15 AM 77.0 °F - 74.5 °F 92% 29.99 in 10.0 mi SE 4.6 mph - N/A Rain Light Rain
9:35 AM 77.2 °F - 74.7 °F 92% 29.99 in 10.0 mi SE 4.6 mph - N/A Rain Light Rain
9:55 AM 77.7 °F - 75.2 °F 92% 30.00 in 10.0 mi SE 4.6 mph - N/A   Mostly Cloudy
10:15 AM 77.9 °F - 75.0 °F 91% 29.99 in 10.0 mi SE 8.1 mph - N/A Rain Light Rain
10:55 AM 77.9 °F - 75.7 °F 93% 29.99 in 10.0 mi SE 4.6 mph - N/A   Light Drizzle
11:15 AM 78.1 °F - 75.6 °F 92% 29.99 in 10.0 mi SE 6.9 mph - N/A Rain Light Rain
11:35 AM 77.9 °F - 75.7 °F 93% 29.99 in 10.0 mi SE 6.9 mph - N/A   Light Drizzle
11:55 AM 78.3 °F - 75.6 °F 91% 29.99 in 10.0 mi SSE 4.6 mph - N/A Rain Light Rain
12:15 PM 78.3 °F - 75.4 °F 91% 29.99 in 10.0 mi South 4.6 mph - 0.01 in Rain Light Rain
12:35 PM 79.5 °F - 74.3 °F 84% 29.98 in 10.0 mi Calm Calm - 0.01 in Rain Light Rain
12:55 PM 81.0 °F 87.1 °F 75.6 °F 84% 29.97 in 10.0 mi Calm Calm - 0.01 in   Scattered Clouds
1:35 PM 82.6 °F 89.9 °F 75.6 °F 79% 29.98 in 10.0 mi SSW 3.5 mph - N/A   Scattered Clouds
1:55 PM 82.8 °F 90.7 °F 75.9 °F 80% 29.98 in 10.0 mi South 4.6 mph - N/A   Mostly Cloudy
2:15 PM 84.6 °F 93.5 °F 75.9 °F 75% 29.97 in - SSE 5.8 mph - N/A   Mostly Cloudy
2:55 PM 84.6 °F 92.1 °F 74.3 °F 71% 29.95 in 10.0 mi South 5.8 mph - N/A   Scattered Clouds
3:15 PM 84.7 °F 92.1 °F 73.9 °F 70% 29.95 in 10.0 mi South 6.9 mph - N/A   Scattered Clouds
3:35 PM 84.7 °F 92.8 °F 74.8 °F 72% 29.95 in 10.0 mi SSE 5.8 mph - N/A Thunderstorm Scattered Clouds
3:55 PM 85.3 °F 93.7 °F 75.0 °F 71% 29.95 in 10.0 mi SSW 8.1 mph - N/A   Mostly Cloudy
4:15 PM 85.3 °F 93.7 °F 75.0 °F 71% 29.95 in 10.0 mi South 11.5 mph - N/A   Overcast
4:35 PM 84.4 °F 91.7 °F 73.9 °F 71% 29.94 in 10.0 mi SSE 9.2 mph - N/A   Mostly Cloudy
4:55 PM 84.0 °F 91.5 °F 74.5 °F 73% 29.94 in 10.0 mi South 12.7 mph 18.4 mph N/A   Clear
5:15 PM 83.3 °F 90.5 °F 74.7 °F 75% 29.94 in 10.0 mi South 8.1 mph - N/A   Clear
5:35 PM 82.4 °F 88.7 °F 74.1 °F 76% 29.95 in 10.0 mi SSE 6.9 mph - N/A   Clear
5:55 PM 81.9 °F 88.0 °F 74.3 °F 78% 29.94 in 10.0 mi SSE 3.5 mph - N/A Thunderstorm Clear
6:35 PM 82.4 °F 89.0 °F 74.7 °F 77% 29.93 in 10.0 mi SE 5.8 mph - N/A   Scattered Clouds
6:55 PM 81.5 °F 87.2 °F 73.9 °F 78% 29.92 in 10.0 mi SSE 6.9 mph - N/A   Clear
7:15 PM 80.8 °F 85.9 °F 73.9 °F 80% 29.92 in 10.0 mi SSE 9.2 mph - N/A   Clear
7:35 PM 79.0 °F - 72.3 °F 80% 29.94 in 10.0 mi SE 6.9 mph - N/A   Clear
7:55 PM 78.3 °F - 71.6 °F 80% 29.94 in 10.0 mi Calm Calm - N/A   Clear
8:15 PM 77.7 °F - 72.0 °F 82% 29.95 in 10.0 mi SSE 4.6 mph - N/A   Clear
8:55 PM 76.6 °F - 72.5 °F 87% 29.94 in 10.0 mi SE 3.5 mph - N/A   Clear
9:15 PM 76.3 °F - 72.7 °F 89% 29.95 in 10.0 mi East 3.5 mph - N/A   Clear
9:35 PM 76.3 °F - 72.7 °F 89% 29.95 in 10.0 mi SE 4.6 mph - N/A   Clear
9:55 PM 76.3 °F - 72.9 °F 89% 29.94 in 10.0 mi SE 4.6 mph - N/A   Clear
10:35 PM 76.1 °F - 73.4 °F 91% 29.95 in 10.0 mi SE 3.5 mph - N/A   Clear
10:55 PM 75.7 °F - 73.0 °F 91% 29.95 in 10.0 mi SE 3.5 mph - N/A   Clear
11:35 PM 75.9 °F - 73.4 °F 92% 29.94 in 10.0 mi SE 5.8 mph - N/A   Clear
11:55 PM 75.7 °F - 73.4 °F 92% 29.94 in 10.0 mi SE 6.9 mph - N/A   Clear